SCP
0 0 0 0 0 0 0 0 0 0 0 0 0 0 0 0 0 0 0 0 0 0 0 0 0 0 0 0 0 0 0 -0 0 0 0 0 -0 -0 0 0 0 0 0
0 0 0 0 0 0 0 0 0 0 0 0 0 0 0 0 0 0 0 0 0 0 0 0 0 0 0 0 0 -0 -0 -0 -0 0 0 0 0 0 0 0 0 0 0
0 0 0 0 0 0 0 0 0 0 0 0 0 0 0 0 0 0 0 0 0 0 0 0 0 0 0 0 0 0 0 0 -0 -0 -0 0 0 0 0 -0 -0 -0 0
0 0 0 0 0 0 0 0 0 0 0 0 0 0 0 0 0 0 0 0 0 0 0 0 0 0 0 0 -0 -0 0 0 0 0 -0 -0 -0 0 0 0 -0 -0 0
0 0 0 0 0 0 0 0 0 0 0 0 0 0 0 0 0 0 0 0 0 0 0 0 0 0 0 0 -0 0 0 0 0 0 0 0 -0 -0 -0 -0 -0 0 0
0 0 0 0 0 0 0 0 0 0 0 0 0 0 0 0 0 0 0 0 0 0 0 0 0 0 0 0 0 0 0 0 0 0 0 0 -0 -0 -0 0 -0 0 0
0 0 0 0 0 0 0 0 0 0 0 0 0 0 0 0 0 0 0 0 0 0 0 0 0 0 0 0 0 0 0 0 0 0 0 0 0 -0 -0 0 0 0 0
0 0 0 0 0 0 0 0 0 0 0 0 0 0 0 0 0 0 0 0 0 0 0 0 0 0 0 0 0 0 0 0 0 0 0 0 0 -0 0 0 0 0 0
0 0 0 0 0 0 0 0 0 0 0 0 0 0 0 0 0 0 0 0 0 0 0 0 0 0 0 0 0 0 0 0 0 0 0 0 0 0 -0 0 0 0 0
0 0 0 0 0 0 0 0 0 0 0 0 0 0 0 0 0 0 0 0 0 0 0 0 0 0 0 0 0 0 0 0 0 0 0 0 0 0 0 0 0 0 0
0 0 0 0 0 0 0 0 0 0 0 0 0 0 0 0 0 0 0 0 0 0 0 0 0 0 0 0 0 0 0 0 0 0 0 0 0 0 0 0 0 0 0
0 0 0 0 0 0 0 0 0 0 0 0 0 0 0 0 0 0 0 0 0 0 0 0 0 0 0 0 0 0 0 0 0 0 0 0 0 0 0 0 0 0 0
0 0 0 0 0 0 0 0 0 0 0 0 0 0 0 0 0 0 0 0 0 0 0 0 0 0 0 0 0 0 0 0 0 0 0 0 0 0 0 0 0 0 0
0 0 0 0 0 0 0 0 0 0 0 0 0 0 0 0 0 0 0 0 0 0 0 0 0 0 0 0 0 0 0 0 0 0 0 0 0 0 0 0 0 0 0
0 0 0 0 0 0 0 0 0 0 0 0 0 0 0 0 0 0 0 0 0 0 0 0 0 0 0 0 0 0 0 0 0 0 0 0 0 0 0 0 0 0 0
0 0 0 0 0 0 0 0 0 0 0 0 0 0 0 0 0 0 0 0 0 0 0 0 0 0 0 0 0 0 0 0 0 0 0 0 0 0 0 0 0 0 0
0 0 0 0 0 0 0 0 0 0 0 0 0 0 0 0 0 0 0 0 0 0 0 0 0 0 0 0 0 0 0 0 0 0 0 0 0 0 0 0 0 0 0
0 0 0 0 0 0 0 0 0 0 0 0 0 0 0 0 0 0 0 0 0 0 0 0 0 0 0 0 0 0 0 0 0 0 0 0 0 0 0 0 0 0 0
0 0 0 0 0 0 0 0 0 0 0 0 0 0 0 0 0 0 0 0 0 0 0 0 0 0 0 0 0 0 0 0 0 0 0 0 0 0 0 0 0 0 0
0 0 0 0 0 0 0 0 0 0 0 0 0 0 0 0 0 0 0 0 0 0 0 0 0 0 0 0 0 0 0 0 0 0 0 0 0 0 0 0 0 0 0
0 0 0 0 0 0 0 0 0 0 0 0 0 0 0 0 0 0 0 -0 -0 -0 0 0 0 0 0 0 0 0 0 0 0 0 0 0 0 0 0 0 0 0 0
0 0 0 0 0 0 0 0 0 0 0 0 0 0 -0 -0 -0 -0 0 -0 -0 -0 -0 -0 -0 0 -0 -0 0 0 0 0 0 0 0 0 0 0 0 0 0 0 0
0 0 0 0 0 0 0 0 0 0 0 0 0 -0 -0 -0 -0 -0 -0 -0 -0 -0 -0 -0 -0 -0 -0 0 0 0 0 0 0 0 0 0 0 0 0 0 0 0 0
0 0 0 0 0 0 0 0 0 0 0 0 0 0 -0 -0 -0 -0 -0 -0 -0 -0 -0 -0 -0 -0 -0 -0 -0 0 0 0 -0 -0 -0 0 0 0 0 0 0 0 0
0 0 0 0 0 0 0 0 0 0 0 0 0 0 0 0 0 0 -0 -0 -0 -0 -0 -0 -0 -0 0 -0 0 0 0 0 0 0 0 -0 -0 -0 0 0 0 0 0
0 0 0 0 0 0 0 0 0 0 0 0 0 0 0 0 0 0 0 0 0 0 -0 -0 -0 -0 -0 0 0 0 0 0 0 0 -0 -0 -0 -0 -0 -0 0 0 0
Wind_Speed_500mb
27 28 21 8 9 19 25 28 27 25 19 14 11 13 15 21 22 20 16 9 6 9 10 7 6 7 10 8 5 14 17 18 21 18 34 29 18 10 10 9 16 14 9
34 32 25 17 15 18 21 24 25 21 19 12 8 12 16 17 19 16 11 2 8 7 8 10 9 8 7 8 16 13 9 16 16 30 23 15 21 18 14 10 12 12 13
38 33 28 24 22 21 21 21 20 16 10 5 7 11 14 15 15 14 7 3 7 6 7 9 8 8 6 8 10 9 9 14 14 27 25 10 10 19 15 15 7 14 15
39 32 27 25 23 22 23 21 17 10 3 5 9 9 9 9 11 10 4 6 9 5 4 8 8 5 5 8 8 2 3 9 11 21 24 8 7 10 12 19 18 21 28
38 33 30 27 25 22 20 18 12 4 4 7 7 9 7 11 11 7 3 7 9 4 3 9 9 7 6 9 10 5 6 4 9 19 18 11 7 15 22 14 32 34 45
36 34 30 28 27 20 18 14 10 8 8 9 10 11 10 11 7 6 4 5 10 8 4 4 7 9 6 8 12 11 7 4 1 8 10 7 8 7 18 32 26 33 38
34 34 32 29 27 21 19 15 13 12 13 13 14 13 12 12 7 4 6 6 8 11 10 10 8 14 12 12 14 18 12 9 10 7 3 6 11 5 19 32 38 31 38
32 33 32 28 24 21 17 15 14 12 13 15 17 15 14 13 12 10 9 8 11 14 14 15 17 12 16 19 18 18 18 19 14 14 13 12 13 9 19 33 41 44 34
33 33 32 28 24 20 18 16 13 13 13 14 15 16 14 14 14 14 15 17 18 21 20 19 21 21 18 23 22 25 22 22 23 21 27 23 20 21 24 37 40 46 31
32 33 33 31 27 23 19 15 14 15 14 13 14 15 17 16 17 18 19 21 22 21 23 22 20 21 23 28 26 26 27 29 29 29 28 25 21 22 30 41 46 53 34
31 32 32 32 31 27 23 22 20 17 15 13 13 13 15 15 17 18 21 21 24 20 21 20 21 21 19 17 24 27 27 30 31 32 29 29 28 25 26 36 39 61 54
29 31 32 32 34 35 33 32 29 26 24 20 15 13 13 12 13 17 19 22 23 24 24 24 24 26 26 28 29 31 32 34 33 33 31 31 33 33 31 34 38 42 51
28 29 31 36 38 38 37 37 37 37 34 30 24 21 20 20 20 21 21 22 24 26 29 30 31 32 31 32 35 38 40 40 41 43 39 36 37 36 37 40 43 48 53
25 27 28 32 34 36 37 35 38 40 39 37 35 32 26 25 25 25 25 26 29 29 29 35 39 41 41 40 41 41 45 48 48 51 46 45 45 45 45 44 46 51 56
23 26 28 29 31 33 34 34 36 37 38 39 39 40 38 35 31 28 28 28 28 31 34 36 39 44 48 49 48 50 48 46 54 57 58 55 54 54 54 54 56 53 54
20 22 24 25 30 34 34 34 35 37 38 38 39 38 38 38 39 37 36 34 31 31 32 36 39 41 44 49 51 56 61 61 59 56 57 63 60 60 59 60 64 61 65
18 19 22 24 29 35 35 35 38 39 41 41 42 42 43 43 43 42 41 40 40 38 35 34 37 42 47 50 55 58 63 69 71 69 66 61 59 66 66 68 70 73 74
11 14 16 20 26 31 32 34 37 41 43 45 47 49 49 49 50 51 52 49 47 45 44 43 41 40 40 45 55 61 66 68 72 76 74 73 69 73 67 76 74 77 80
6 10 13 17 21 26 29 32 35 40 44 48 51 54 56 57 56 54 54 56 58 56 53 50 47 47 44 44 44 52 62 68 73 73 74 75 75 77 77 74 79 87 84
5 7 10 13 17 22 27 32 36 42 47 52 55 58 60 63 65 66 64 62 59 58 58 55 58 59 52 48 48 47 50 56 65 72 77 79 78 77 77 76 79 84 88
4 7 10 13 19 25 32 37 42 47 53 56 58 61 63 65 66 68 68 70 71 69 64 63 59 54 57 66 59 50 49 47 53 60 67 72 76 83 86 84 83 82 82
7 9 12 17 25 32 39 46 51 59 64 66 66 64 62 62 64 66 66 68 68 69 71 70 68 64 64 58 53 60 63 57 51 54 59 64 68 72 83 91 95 94 91
13 15 17 22 29 35 42 50 57 65 69 70 70 70 68 65 62 63 65 66 66 68 70 72 74 74 70 67 64 62 61 59 67 72 67 64 63 63 69 79 86 86 93
20 22 24 28 33 39 45 54 62 66 65 65 64 65 66 66 67 69 68 66 63 65 69 73 77 79 79 76 70 67 70 75 72 70 66 73 78 72 70 68 71 80 86
27 30 33 38 43 49 57 66 69 71 70 70 70 70 71 72 72 69 67 70 69 65 66 68 71 76 82 78 71 68 69 72 76 78 84 82 74 71 77 76 72 68 70
34 36 41 45 50 56 63 66 67 68 69 70 70 71 74 76 77 79 85 78 74 70 72 72 69 73 74 72 73 72 69 69 70 77 86 88 81 73 66 65 71 70 70
Wind_Direction_500mb
11 8 9 17 141 162 177 190 197 206 214 227 260 301 315 324 329 335 340 353 94 104 111 93 121 106 119 98 81 88 80 42 7 344 20 51 57 74 115 139 132 135 141
17 22 36 53 96 131 157 170 183 186 197 211 267 305 318 322 330 338 342 47 128 120 116 123 124 115 106 78 107 100 62 23 16 2 20 27 51 81 80 105 141 129 98
15 25 40 63 85 110 134 153 162 173 190 240 300 319 324 332 349 343 350 185 153 117 140 159 142 156 138 130 127 112 66 22 16 9 20 354 44 58 82 79 102 110 127
19 29 48 63 87 106 129 139 146 154 188 317 327 338 334 330 318 318 321 189 182 154 184 182 162 148 168 166 199 224 17 50 25 22 11 55 76 92 75 108 101 155 139
26 31 48 68 83 99 111 122 128 116 3 339 344 336 338 330 326 330 319 188 194 199 31 198 192 192 217 211 213 233 232 110 29 27 40 73 38 122 131 100 116 115 145
31 47 51 60 67 78 91 88 74 43 15 4 354 345 335 336 332 345 350 218 209 220 296 316 222 215 229 222 209 205 214 279 216 29 47 66 25 240 169 143 132 144 129
34 41 50 50 55 60 60 60 50 31 12 6 358 352 335 336 318 318 316 291 253 248 269 295 279 235 232 232 218 214 233 263 257 293 246 286 303 285 204 161 153 150 148
35 40 41 45 52 52 49 45 29 23 8 3 358 354 338 328 326 296 276 280 275 256 264 276 284 269 238 241 230 227 231 238 244 277 263 266 266 256 213 203 176 169 172
32 34 36 41 46 49 37 24 15 356 356 352 354 350 337 323 309 300 283 269 269 267 261 264 274 275 248 242 247 241 243 244 250 267 275 271 258 229 226 223 217 192 183
39 36 34 34 37 36 30 17 5 345 342 335 339 346 341 328 313 301 297 287 281 283 286 272 269 279 268 249 245 251 254 251 255 260 264 259 252 240 227 227 224 213 216
35 37 39 36 35 37 32 21 9 354 343 331 327 327 327 326 317 307 301 298 296 290 288 282 271 276 273 277 260 258 260 260 261 265 264 252 252 246 226 228 231 223 214
40 36 32 37 41 38 35 31 25 18 11 357 334 310 299 302 311 313 297 290 286 283 276 274 277 269 266 266 265 265 269 268 270 269 270 264 253 250 238 223 227 232 229
41 35 31 28 31 35 36 32 29 29 26 19 6 346 326 317 306 295 290 284 280 275 273 268 267 267 266 266 269 270 268 265 267 271 270 269 259 251 245 239 228 229 240
34 31 28 25 23 23 25 28 29 28 28 26 22 12 1 345 330 315 303 297 290 282 272 271 269 268 267 268 267 271 269 270 266 267 265 262 263 262 252 250 243 241 239
31 26 21 20 18 17 16 16 19 17 18 17 18 16 14 10 358 342 325 310 297 288 281 275 268 268 268 268 269 266 270 270 268 266 268 265 260 260 262 258 252 249 246
32 23 21 19 22 21 20 16 17 14 11 8 8 6 2 2 3 0 354 342 327 309 294 286 280 271 268 268 268 269 269 266 269 270 266 262 263 262 260 257 260 256 252
22 18 19 16 19 20 22 22 22 21 19 15 12 9 4 360 357 354 351 347 344 339 329 313 299 287 277 268 263 264 266 266 264 265 266 269 267 259 261 261 258 258 257
19 16 20 21 23 24 24 22 20 19 18 16 13 10 8 5 1 357 351 347 344 340 338 334 329 319 305 289 276 267 264 266 266 265 265 264 266 264 264 258 263 258 257
25 26 27 27 25 21 18 14 8 6 3 1 359 356 353 351 349 348 348 346 343 341 336 332 327 326 323 317 303 286 274 268 266 267 266 265 265 264 265 267 265 265 262
20 25 21 19 15 11 6 360 354 350 348 346 344 341 338 336 334 333 332 331 330 329 330 331 327 319 316 317 315 315 300 285 275 270 268 267 266 264 264 266 268 270 266
326 354 3 359 356 352 350 347 343 341 339 336 333 331 329 327 325 323 323 322 321 319 318 317 318 320 319 316 311 310 314 307 295 287 281 274 272 269 265 263 264 265 268
306 320 332 337 337 337 338 338 336 334 332 330 329 328 327 326 325 323 322 321 321 319 318 316 312 311 311 312 314 312 312 305 304 298 292 288 282 276 271 268 266 265 265
284 298 310 320 322 323 328 328 326 325 324 324 325 326 326 326 326 324 323 322 321 321 321 319 318 316 312 308 307 309 304 303 305 302 298 295 293 288 280 272 273 273 266
283 290 297 304 308 314 321 321 321 321 321 321 322 322 322 322 322 322 323 322 321 320 319 318 317 316 315 314 314 306 303 300 300 303 299 300 299 296 293 290 280 272 271
284 289 296 304 312 319 322 321 321 320 322 323 324 324 324 323 322 320 319 318 318 317 315 314 313 312 311 313 311 307 304 302 300 301 296 299 301 301 297 296 296 292 278
293 293 297 303 309 313 315 315 314 316 319 319 320 320 320 320 320 320 318 316 315 313 313 311 310 310 307 306 307 304 304 300 300 295 291 293 297 299 300 296 294 294 292
Wind_Speed_850mb
27 28 21 8 9 19 25 28 27 25 19 14 11 13 15 21 22 20 16 9 6 9 10 7 6 7 10 8 5 14 17 18 21 18 34 29 18 10 10 9 16 14 9
34 32 25 17 15 18 21 24 25 21 19 12 8 12 16 17 19 16 11 2 8 7 8 10 9 8 7 8 16 13 9 16 16 30 23 15 21 18 14 10 12 12 13
38 33 28 24 22 21 21 21 20 16 10 5 7 11 14 15 15 14 7 3 7 6 7 9 8 8 6 8 10 9 9 14 14 27 25 10 10 19 15 15 7 14 15
39 32 27 25 23 22 23 21 17 10 3 5 9 9 9 9 11 10 4 6 9 5 4 8 8 5 5 8 8 2 3 9 11 21 24 8 7 10 12 19 18 21 28
38 33 30 27 25 22 20 18 12 4 4 7 7 9 7 11 11 7 3 7 9 4 3 9 9 7 6 9 10 5 6 4 9 19 18 11 7 15 22 14 32 34 45
36 34 30 28 27 20 18 14 10 8 8 9 10 11 10 11 7 6 4 5 10 8 4 4 7 9 6 8 12 11 7 4 1 8 10 7 8 7 18 32 26 33 38
34 34 32 29 27 21 19 15 13 12 13 13 14 13 12 12 7 4 6 6 8 11 10 10 8 14 12 12 14 18 12 9 10 7 3 6 11 5 19 32 38 31 38
32 33 32 28 24 21 17 15 14 12 13 15 17 15 14 13 12 10 9 8 11 14 14 15 17 12 16 19 18 18 18 19 14 14 13 12 13 9 19 33 41 44 34
33 33 32 28 24 20 18 16 13 13 13 14 15 16 14 14 14 14 15 17 18 21 20 19 21 21 18 23 22 25 22 22 23 21 27 23 20 21 24 37 40 46 31
32 33 33 31 27 23 19 15 14 15 14 13 14 15 17 16 17 18 19 21 22 21 23 22 20 21 23 28 26 26 27 29 29 29 28 25 21 22 30 41 46 53 34
31 32 32 32 31 27 23 22 20 17 15 13 13 13 15 15 17 18 21 21 24 20 21 20 21 21 19 17 24 27 27 30 31 32 29 29 28 25 26 36 39 61 54
29 31 32 32 34 35 33 32 29 26 24 20 15 13 13 12 13 17 19 22 23 24 24 24 24 26 26 28 29 31 32 34 33 33 31 31 33 33 31 34 38 42 51
28 29 31 36 38 38 37 37 37 37 34 30 24 21 20 20 20 21 21 22 24 26 29 30 31 32 31 32 35 38 40 40 41 43 39 36 37 36 37 40 43 48 53
25 27 28 32 34 36 37 35 38 40 39 37 35 32 26 25 25 25 25 26 29 29 29 35 39 41 41 40 41 41 45 48 48 51 46 45 45 45 45 44 46 51 56
23 26 28 29 31 33 34 34 36 37 38 39 39 40 38 35 31 28 28 28 28 31 34 36 39 44 48 49 48 50 48 46 54 57 58 55 54 54 54 54 56 53 54
20 22 24 25 30 34 34 34 35 37 38 38 39 38 38 38 39 37 36 34 31 31 32 36 39 41 44 49 51 56 61 61 59 56 57 63 60 60 59 60 64 61 65
18 19 22 24 29 35 35 35 38 39 41 41 42 42 43 43 43 42 41 40 40 38 35 34 37 42 47 50 55 58 63 69 71 69 66 61 59 66 66 68 70 73 74
11 14 16 20 26 31 32 34 37 41 43 45 47 49 49 49 50 51 52 49 47 45 44 43 41 40 40 45 55 61 66 68 72 76 74 73 69 73 67 76 74 77 80
6 10 13 17 21 26 29 32 35 40 44 48 51 54 56 57 56 54 54 56 58 56 53 50 47 47 44 44 44 52 62 68 73 73 74 75 75 77 77 74 79 87 84
5 7 10 13 17 22 27 32 36 42 47 52 55 58 60 63 65 66 64 62 59 58 58 55 58 59 52 48 48 47 50 56 65 72 77 79 78 77 77 76 79 84 88
4 7 10 13 19 25 32 37 42 47 53 56 58 61 63 65 66 68 68 70 71 69 64 63 59 54 57 66 59 50 49 47 53 60 67 72 76 83 86 84 83 82 82
7 9 12 17 25 32 39 46 51 59 64 66 66 64 62 62 64 66 66 68 68 69 71 70 68 64 64 58 53 60 63 57 51 54 59 64 68 72 83 91 95 94 91
13 15 17 22 29 35 42 50 57 65 69 70 70 70 68 65 62 63 65 66 66 68 70 72 74 74 70 67 64 62 61 59 67 72 67 64 63 63 69 79 86 86 93
20 22 24 28 33 39 45 54 62 66 65 65 64 65 66 66 67 69 68 66 63 65 69 73 77 79 79 76 70 67 70 75 72 70 66 73 78 72 70 68 71 80 86
27 30 33 38 43 49 57 66 69 71 70 70 70 70 71 72 72 69 67 70 69 65 66 68 71 76 82 78 71 68 69 72 76 78 84 82 74 71 77 76 72 68 70
34 36 41 45 50 56 63 66 67 68 69 70 70 71 74 76 77 79 85 78 74 70 72 72 69 73 74 72 73 72 69 69 70 77 86 88 81 73 66 65 71 70 70
Wind_Direction_850mb
11 8 9 17 141 162 177 190 197 206 214 227 260 301 315 324 329 335 340 353 94 104 111 93 121 106 119 98 81 88 80 42 7 344 20 51 57 74 115 139 132 135 141
17 22 36 53 96 131 157 170 183 186 197 211 267 305 318 322 330 338 342 47 128 120 116 123 124 115 106 78 107 100 62 23 16 2 20 27 51 81 80 105 141 129 98
15 25 40 63 85 110 134 153 162 173 190 240 300 319 324 332 349 343 350 185 153 117 140 159 142 156 138 130 127 112 66 22 16 9 20 354 44 58 82 79 102 110 127
19 29 48 63 87 106 129 139 146 154 188 317 327 338 334 330 318 318 321 189 182 154 184 182 162 148 168 166 199 224 17 50 25 22 11 55 76 92 75 108 101 155 139
26 31 48 68 83 99 111 122 128 116 3 339 344 336 338 330 326 330 319 188 194 199 31 198 192 192 217 211 213 233 232 110 29 27 40 73 38 122 131 100 116 115 145
31 47 51 60 67 78 91 88 74 43 15 4 354 345 335 336 332 345 350 218 209 220 296 316 222 215 229 222 209 205 214 279 216 29 47 66 25 240 169 143 132 144 129
34 41 50 50 55 60 60 60 50 31 12 6 358 352 335 336 318 318 316 291 253 248 269 295 279 235 232 232 218 214 233 263 257 293 246 286 303 285 204 161 153 150 148
35 40 41 45 52 52 49 45 29 23 8 3 358 354 338 328 326 296 276 280 275 256 264 276 284 269 238 241 230 227 231 238 244 277 263 266 266 256 213 203 176 169 172
32 34 36 41 46 49 37 24 15 356 356 352 354 350 337 323 309 300 283 269 269 267 261 264 274 275 248 242 247 241 243 244 250 267 275 271 258 229 226 223 217 192 183
39 36 34 34 37 36 30 17 5 345 342 335 339 346 341 328 313 301 297 287 281 283 286 272 269 279 268 249 245 251 254 251 255 260 264 259 252 240 227 227 224 213 216
35 37 39 36 35 37 32 21 9 354 343 331 327 327 327 326 317 307 301 298 296 290 288 282 271 276 273 277 260 258 260 260 261 265 264 252 252 246 226 228 231 223 214
40 36 32 37 41 38 35 31 25 18 11 357 334 310 299 302 311 313 297 290 286 283 276 274 277 269 266 266 265 265 269 268 270 269 270 264 253 250 238 223 227 232 229
41 35 31 28 31 35 36 32 29 29 26 19 6 346 326 317 306 295 290 284 280 275 273 268 267 267 266 266 269 270 268 265 267 271 270 269 259 251 245 239 228 229 240
34 31 28 25 23 23 25 28 29 28 28 26 22 12 1 345 330 315 303 297 290 282 272 271 269 268 267 268 267 271 269 270 266 267 265 262 263 262 252 250 243 241 239
31 26 21 20 18 17 16 16 19 17 18 17 18 16 14 10 358 342 325 310 297 288 281 275 268 268 268 268 269 266 270 270 268 266 268 265 260 260 262 258 252 249 246
32 23 21 19 22 21 20 16 17 14 11 8 8 6 2 2 3 0 354 342 327 309 294 286 280 271 268 268 268 269 269 266 269 270 266 262 263 262 260 257 260 256 252
22 18 19 16 19 20 22 22 22 21 19 15 12 9 4 360 357 354 351 347 344 339 329 313 299 287 277 268 263 264 266 266 264 265 266 269 267 259 261 261 258 258 257
19 16 20 21 23 24 24 22 20 19 18 16 13 10 8 5 1 357 351 347 344 340 338 334 329 319 305 289 276 267 264 266 266 265 265 264 266 264 264 258 263 258 257
25 26 27 27 25 21 18 14 8 6 3 1 359 356 353 351 349 348 348 346 343 341 336 332 327 326 323 317 303 286 274 268 266 267 266 265 265 264 265 267 265 265 262
20 25 21 19 15 11 6 360 354 350 348 346 344 341 338 336 334 333 332 331 330 329 330 331 327 319 316 317 315 315 300 285 275 270 268 267 266 264 264 266 268 270 266
326 354 3 359 356 352 350 347 343 341 339 336 333 331 329 327 325 323 323 322 321 319 318 317 318 320 319 316 311 310 314 307 295 287 281 274 272 269 265 263 264 265 268
306 320 332 337 337 337 338 338 336 334 332 330 329 328 327 326 325 323 322 321 321 319 318 316 312 311 311 312 314 312 312 305 304 298 292 288 282 276 271 268 266 265 265
284 298 310 320 322 323 328 328 326 325 324 324 325 326 326 326 326 324 323 322 321 321 321 319 318 316 312 308 307 309 304 303 305 302 298 295 293 288 280 272 273 273 266
283 290 297 304 308 314 321 321 321 321 321 321 322 322 322 322 322 322 323 322 321 320 319 318 317 316 315 314 314 306 303 300 300 303 299 300 299 296 293 290 280 272 271
284 289 296 304 312 319 322 321 321 320 322 323 324 324 324 323 322 320 319 318 318 317 315 314 313 312 311 313 311 307 304 302 300 301 296 299 301 301 297 296 296 292 278
293 293 297 303 309 313 315 315 314 316 319 319 320 320 320 320 320 320 318 316 315 313 313 311 310 310 307 306 307 304 304 300 300 295 291 293 297 299 300 296 294 294 292